Location: Unspecified
(0.0000°N, 0.0000°E)
Time: 19:35:28
(UTC+02:00)

Hubble Space Telescope - Visible Passes

Search period start: 18 October 2018 00:00
Search period end: 28 October 2018 00:00
Orbit: 537 x 541 km, 28.5° (Epoch: 17 October)

Date Brightness Start Highest point End Pass type
(mag) Time Alt. Az. Time Alt. Az. Time Alt. Az.
22 Oct 3.3 21:12:52 10° SSE 21:12:59 10° SSE 21:12:59 10° SSE visible
23 Oct 2.9 21:00:55 10° S 21:03:10 14° SSE 21:03:21 14° SSE visible
24 Oct 2.5 20:49:49 10° SSW 20:52:49 19° SSE 20:53:44 18° SE visible
25 Oct 2.1 20:38:57 10° SSW 20:42:27 26° SSE 20:44:10 20° ESE visible
26 Oct 1.6 20:28:13 10° SW 20:32:04 36° SSE 20:34:38 18° E visible
26 Oct 3.9 22:09:29 10° W 22:10:00 13° W 22:10:00 13° W visible
27 Oct 1.1 20:17:37 10° SW 20:21:40 52° SSE 20:25:07 14° ENE visible
27 Oct 3.6 21:59:29 10° W 22:00:29 15° WNW 22:00:29 15° WNW visible
